sat.trackr.live / text

‹ back to catalog

KINEIS-5C

NORAD 62081 · 2024-219A

PAYLOAD ACTIVE UNKNOWN

§ Identity

Operator
Country
FR
Launch date
2024-11-25
Launch site
RLLB
Launch vehicle
Mass (kg)
RCS (m²)

External: N2YO · Heavens-Above · Gunter

§ Orbital elements

Epoch: 2026-09-22T22:10:48.112608Z

Period
97.80 min
Inclination
97.9156°
Eccentricity
0.0003527
Mean motion
14.72322686 rev/d
Perigee alt
651.2 km
Apogee alt
656.1 km
Semi-major
7,031.8 km
B*
7.1853e-5
RAAN
62.1314°
Arg perigee
348.7188°
Mean anomaly
11.3940°
Rev number
9,813

§ Raw data

KINEIS-5C1 62081U 24219A   26265.92416797  .00000406  00000+0  71853-4 0  99982 62081  97.9156  62.1314 0003527 348.7188  11.3940 14.72322686 98139

JSON: /api/v1/satellites/62081 · /tle

For live sub-satellite position, see the globe view (requires WebGL).

§ Visibility from observer

Set your observer location to see the next 7 days of passes ≥ 10°. The values pass through the URL so the page stays shareable.

No JS? Fill the form by hand. The geolocation button needs JavaScript.

§ Radio — SatNOGS DB

ModeDescriptionDownlinkUplink
BPSK S-band telemetry 2.261 GHz
UNKNOWN S-band telemetry 2.265 GHz
FM Telemetry 400.638 MHz

3 transmitters · refreshed weekly from db.satnogs.org